Find NOAA 7

NORAD ID: 12553 Int'l Des: 1981-059 Owner: NOAA Country: US operational
LEOCIRCULARRETROGRADESSO

Live-Position

3D-Globus wird geladen...

Über NOAA 7

Beschreibung wird geladen...

Nächste Überflüge

Passes for default location (London). Set your location on the main map for personalized predictions.

Höhenverlauf

Loading altitude history...

Zweizeiliger Elementsatz

1 12553U 81059A 26104.44146875 .00000023 00000-0 32754-4 0 9991
2 12553 98.7997 172.1773 0012548 91.0683 269.1929 14.17780681315710
Epoch: 14. Apr. 2026 • Age: 10 hours

Aktueller Status

Höhe 862.9 km
Geschwindigkeit 7.42 km/s
Subsatellitenpunkt -57.78°S, 167.36°W
Startdatum 23. Juni 1981
Alter 44.8 years
Typ weather

Technische Details

Klassifizierung Payload
Masse 685.00 kg
Trockenmasse 685.00 kg
Gesamtmasse 1418.00 kg
Länge 3.70 m
Durchmesser 1.90 m
Spannweite 4.90 m
Form Box + Pan
Hersteller RCA
Bus-Typ Tiros N
Phasenstatus In Orbit
Besitzer/Staat NOAA/US

Most Searched